This is the latest recevied weather packets stored in our database for station/object KB1ZFK. If no packets are shown the sender has not sent any weather packets the latest 10 day(s).
| Time | Temp. | Humidity | Pressure | Rain* | Wind** | Luminosity | Snow |
|---|---|---|---|---|---|---|---|
| 1777135986 | 11.11° C | 42% | 1017.2 hPa | 0 mm | - | 501 W/m² | - |
| 1777135681 | 11.11° C | 43% | 1017.1 hPa | 0 mm | - | 379 W/m² | - |
| 1777135378 | 11.11° C | 42% | 1017.1 hPa | 0 mm | - | 747 W/m² | - |
| 1777135074 | 11.11° C | 43% | 1017.4 hPa | 0 mm | - | 745 W/m² | - |
| 1777134772 | 11.67° C | 43% | 1017.3 hPa | 0 mm | - | 769 W/m² | - |
| 1777134467 | 11.11° C | 42% | 1017.7 hPa | 0 mm | - | 657 W/m² | - |
| 1777134164 | 11.11° C | 46% | 1017.3 hPa | 0 mm | - | 812 W/m² | - |
| 1777133861 | 11.67° C | 42% | 1017.4 hPa | 0 mm | - | 429 W/m² | - |
| 1777133558 | 11.11° C | 43% | 1017.6 hPa | 0 mm | - | 727 W/m² | - |
| 1777133257 | 10° C | 44% | 1017.6 hPa | 0 mm | - | 636 W/m² | - |
| 1777132956 | 10° C | 45% | 1017.8 hPa | 0 mm | - | 393 W/m² | - |
| 1777132653 | 10° C | 45% | 1017.4 hPa | 0 mm | - | 594 W/m² | - |
| 1777132349 | 10.56° C | 44% | 1017.5 hPa | 0 mm | - | 470 W/m² | - |
| 1777132046 | 10° C | 44% | 1017.6 hPa | 0 mm | - | 354 W/m² | - |
| 1777131741 | 10° C | 45% | 1017.7 hPa | 0 mm | - | 493 W/m² | - |
| 1777131439 | 10° C | 44% | 1017.6 hPa | 0 mm | - | 499 W/m² | - |
| 1777131138 | 10° C | 46% | 1017.8 hPa | 0 mm | - | 641 W/m² | - |
| 1777130834 | 11.11° C | 44% | 1017.8 hPa | 0 mm | - | 595 W/m² | - |
| 1777130530 | 10° C | 45% | 1017.7 hPa | 0 mm | - | 411 W/m² | - |
| 1777130226 | 10.56° C | 44% | 1017.8 hPa | 0 mm | - | 475 W/m² | - |
| 1777129923 | 10° C | 46% | 1017.7 hPa | 0 mm | - | 726 W/m² | - |
| 1777129617 | 10° C | 47% | 1017.8 hPa | 0 mm | - | 521 W/m² | - |
* Rain latest hour (hover to see other rain measurements)
** Current wind speed in m/s (hover to see current wind gust speed)